Regional Weather Roundup
Issued by NWS

Home | Current Version | Previous Version | Text Only | Print | Product List | Glossary Off
Versions: 1 2 3 4 5 6 7 8 9 10 11 12 13 14 15 16 17 18 19 20 21 22 23 24 25 26 27 28 29 30 31 32 33 34 35 36 37 38 39 40 41 42 43 44 45 46 47 48 49 50

000
ASUS43 KBIS 280810
RWRND

NORTH DAKOTA REGIONAL WEATHER ROUNDUP
NATIONAL WEATHER SERVICE BISMARCK ND
300 AM CDT SAT MAY 28 2016

NOTE: "FAIR" INDICATES FEW OR NO CLOUDS BELOW 12,000 FEET WITH NO
SIGNIFICANT WEATHER AND/OR OBSTRUCTIONS TO VISIBILITY.


NDZ001>003-009>011-017-280900-
NORTHWEST NORTH DAKOTA

CITY           SKY/WX    TMP DP  RH WIND       PRES   REMARKS
WILLISTON      CLOUDY    57  53  86 E9        29.88R
MINOT          CLOUDY    56  54  93 NE7       29.88S FOG
MINOT AFB      CLOUDY    54  54 100 NE8       29.88S FOG
$$

NDZ018>021-031>035-040>046-280900-
SOUTHWEST NORTH DAKOTA

CITY           SKY/WX    TMP DP  RH WIND       PRES   REMARKS
BISMARCK       MOCLDY    55  51  86 NE3       29.84S
DICKINSON      MOCLDY    47  44  90 W3        29.84F
GARRISON         N/A     57  54  89 NE7       29.85F
HETTINGER ARPT MOCLDY    41  38  89 W3        29.87S
$$

NDZ004>008-012>016-024-026-027-054-280900-
NORTHEAST NORTH DAKOTA

CITY           SKY/WX    TMP DP  RH WIND       PRES   REMARKS
GRAND FORKS    CLOUDY    63  58  83 SE5       29.81S
GRND FRKS AFB  MOCLDY    61  61 100 N3        29.82S
DEVILS LAKE    CLOUDY    57  56  96 N9        29.85F FOG
$$

NDZ022-023-025-028>030-036>039-047>053-280900-
SOUTHEAST NORTH DAKOTA

CITY           SKY/WX    TMP DP  RH WIND       PRES   REMARKS
FARGO          PTCLDY    58  56  93 CALM      29.80R
JAMESTOWN      CLOUDY    59  56  89 E6        29.80F
$$




USA.gov is the U.S. government's official web portal to all federal, state and local government web resources and services.